Hurghada, Egypt

9:42 PM EET on August 28, 2016 (GMT +0200)
Hurghada

Weather History for 62463 - June, 2013

Change the Weather History Date:

Wednesday, June 19, 2013

  Actual Average Record
Temperature  
Mean Temperature 90 °F -  
Max Temperature 102 °F 95 °F - ()
Min Temperature 79 °F 80 °F - ()
Cooling Degree Days 26    
Growing Degree Days 40 (Base 50)    
Moisture  
Dew Point 58 °F    
Average Humidity 34    
Maximum Humidity 58    
Minimum Humidity 16    
Precipitation  
Precipitation 0.00 in - - ()
Sea Level Pressure  
Sea Level Pressure 29.64 in    
Wind  
Wind Speed 8 mph ()    
Max Wind Speed 16 mph    
Max Gust Speed -    
Visibility 6.0 miles    
Events      
T = Trace of Precipitation, MM = Missing Value Source: Averaged Metar Reports

Daily Weather History Graph

Daily Weather History Graph

Search for Another Location

Airport or City:

Trip Planner

Search our weather history database for the weather conditions in past years. The results will help you decide how hot, cold, wet, or windy it might be!

Date:

Astronomy

Jun. 19, 2013 Rise Set
Actual Time 4:50 AM EET 6:41 PM EET
Civil Twilight 4:24 AM EET 7:08 PM EET
Nautical Twilight 3:52 AM EET 7:40 PM EET
Astronomical Twilight 3:18 AM EET 8:14 PM EET
Moon 2:26 PM EET (6/19) 1:03 AM EET (6/19)
Length of Visible Light 14h 44m
Length of Day
13h 51m
Waxing Gibbous, 78% of the Moon is Illuminated
Jun 19
Waxing Gibbous
Jun 23
Full
Jun 30
Last Quarter
Jul 8
New
Jul 16
First Quarter

Hourly Weather History & Observations

Time (EET) Temp. Heat Index Dew Point Humidity Pressure Visibility Wind Dir Wind Speed Gust Speed Precip Events Conditions
12:00 AM 84.2 °F - 51.8 °F 33% 29.62 in - WNW 12.7 mph - N/A   Clear
1:00 AM 84.2 °F - 51.8 °F 33% 29.62 in - West 11.5 mph - N/A   Clear
2:00 AM 85 °F - 53 °F 23% 29.62 in 6 mi WNW 16.1 mph - -  
2:00 AM 84.2 °F - 51.8 °F 33% 29.59 in - WNW 16.1 mph - N/A   Clear
3:00 AM 84.2 °F - 51.8 °F 33% 29.62 in - NW 13.8 mph - N/A   Clear
4:00 AM 80.6 °F - 51.8 °F 37% 29.62 in - North 6.9 mph - N/A   Clear
5:00 AM 80.6 °F - 51.8 °F 37% 29.65 in - WNW 4.6 mph - N/A   Clear
6:00 AM 80.6 °F 81.5 °F 60.8 °F 51% 29.65 in - NNW 4.6 mph - N/A   Clear
7:00 AM 86.0 °F 87.3 °F 64.4 °F 48% 29.68 in - North 9.2 mph - N/A   Clear
8:00 AM 89 °F - 62 °F 31% 29.69 in 6 mi North 10.4 mph - -  
8:00 AM 87.8 °F 93.8 °F 71.6 °F 58% 29.71 in - North 10.4 mph - N/A   Clear
9:00 AM 89.6 °F 88.9 °F 59.0 °F 36% 29.68 in - North 15.0 mph - N/A   Clear
10:00 AM 93.2 °F 92.6 °F 59.0 °F 32% 29.68 in - North 12.7 mph - N/A   Clear
11:00 AM 95.0 °F 93.7 °F 57.2 °F 28% 29.68 in - North 11.5 mph - N/A   Clear
12:00 PM 98.6 °F 97.6 °F 57.2 °F 25% 29.65 in - NE 11.5 mph - N/A   Clear
1:00 PM 102.2 °F 101.4 °F 57.2 °F 22% 29.65 in - East 11.5 mph - N/A   Clear
2:00 PM 102 °F - 59 °F 16% 29.64 in 6 mi ESE 9.2 mph - -  
2:00 PM 102.2 °F 102.4 °F 59.0 °F 24% 29.62 in - ESE 9.2 mph - N/A   Clear
3:00 PM 100.4 °F 102.4 °F 62.6 °F 29% 29.62 in - East 6.9 mph - N/A   Clear
3:14 PM 100.4 °F 102.4 °F 62.6 °F 29% 29.62 in - East 6.9 mph - N/A   Clear
4:00 PM 100.4 °F 101.3 °F 60.8 °F 27% 29.62 in - ESE 4.6 mph - N/A   Clear
5:00 PM 98.6 °F 98.5 °F 59.0 °F 27% 29.62 in - ESE 4.6 mph - N/A   Clear
6:00 PM 96.8 °F 95.8 °F 57.2 °F 27% 29.62 in - Calm Calm - N/A   Clear
7:00 PM 87.8 °F 86.1 °F 55.4 °F 33% 29.65 in - Calm Calm - N/A   Clear
8:00 PM 86 °F - 58 °F 29% 29.68 in 6 mi Calm Calm - -  
8:00 PM 86.0 °F 85.4 °F 59.0 °F 40% 29.65 in - Calm Calm - N/A   Clear
9:00 PM 86.0 °F 85.4 °F 59.0 °F 40% 29.65 in - Calm Calm - N/A   Clear
10:00 PM 84.2 °F 84.4 °F 60.8 °F 45% 29.65 in - Calm Calm - N/A   Clear
11:00 PM 84.2 °F 85.6 °F 64.4 °F 51% 29.65 in - North 3.5 mph - N/A   Clear